Location: Caltech
(34.1382°N, 118.1253°W)
Time: 14:52:13
(UTC-07:00)

Cosmos 1833 Rocket - Visible Passes

Search period start: 24 March 2017 00:00
Search period end: 03 April 2017 00:00
Orbit: 834 x 838 km, 71.0° (Epoch: 23 March)

Date Brightness Start Highest point End Pass type
(mag) Time Alt. Az. Time Alt. Az. Time Alt. Az.
24 Mar 4.1 20:13:35 10° NNE 20:17:35 19° ENE 20:18:39 19° ENE visible
24 Mar 3.8 21:56:21 10° NNW 22:00:23 41° WNW 22:00:23 41° WNW visible
25 Mar 4.2 19:57:06 10° NNE 20:00:50 18° ENE 20:02:59 15° E visible
25 Mar 3.2 21:39:37 10° NNW 21:44:43 55° W 21:44:43 55° W visible
26 Mar 4.3 19:40:37 10° NNE 19:44:06 16° NE 19:47:24 10° E visible
26 Mar 3.0 21:22:54 10° NNW 21:28:27 62° WSW 21:29:08 57° SW visible
27 Mar 2.9 21:06:11 10° NNW 21:11:46 68° WSW 21:13:40 41° S visible
28 Mar 2.8 20:49:29 10° NNW 20:55:06 75° WSW 20:58:19 26° S visible
29 Mar 2.7 20:32:47 10° NNW 20:38:25 82° WSW 20:43:06 15° SSE visible
30 Mar 2.7 20:16:06 10° NNW 20:21:45 89° WSW 20:27:22 10° SSE visible
31 Mar 2.6 19:59:25 10° NNW 20:05:04 83° ENE 20:10:42 10° SSE visible
01 Apr 2.7 19:42:45 10° NNW 19:48:23 76° ENE 19:54:00 10° SSE visible
01 Apr 5.6 21:30:10 10° W 21:31:31 11° W 21:32:54 10° WSW visible
02 Apr 5.5 21:12:45 10° WNW 21:14:54 12° W 21:17:04 10° WSW visible
